Погода в Умани

Погода в Умани : погода сейчас, прогноз погоды и архив. Всё, что Вы хотите узнать о погоде в Умани!

Хотите узнать прогноз погоды в Умани? Тогда Вам сюда: Погода в Умани

Поиск расширенной информации на нашем сайте:

Другие новости

Новости СМИ2

Главная страница сайта

Новости сайта

03.07.2017

Напоминаем, что на нашем специализированном сайте Метеоцентр.Азия вы можете получить высокодетализированные автоматические прогнозы погоды по пунктам России, СНГ и мира в авиационном формате (включающие направление и скорость ветра, видимость, явления погоды, количество и форму облачности, нижнюю и верхнюю границу облачности).


Погода в Умани - сегодня

Время (UTC), дата Ветер
(°,м/с) 
Видим.   Явления Облачность Т
(°С)
Тd
(°С)
f(%) Тe
(°С)
Pmin
(гПа)
dP
(гПа)
Po
(мм)
O2
(г/м3)
Тmin Tmax R s Состояние
почвы
09 16.06.18 тихо ()   10 км  {гроза, ливн. осадки}  8/5 600 м кучево-дожд., верхняя 
[Cb cap|Ci fib]
+25.5 +16.8 59 +38  1011.3  0.8  740  269           
12 16.06.18 010 (С) 20000 м  {гроза, ливн. осадки}  9/9 750 м кучево-дожд. 
[Cb cap]
+25.5 +17.5 61 +39  1011.6  0.3  740  269           
15 16.06.18 010 (С) 10 км    10/6 1000 м верхняя 
[Sc|Ci fib]
+23.9 +17.7 68 +38  1011.3  -0.5  740  270           
18 16.06.18 350 (С) 10 км    10/8 800 м верхняя 
[Sc|Ci fib]
+22.7 +17.9 74 +37  1011.5  0.1  740  271    +26.4  0.0     
21 16.06.18 040 (СВ) н/о  гроза без осадков  6/6 600 м 
[Sc]
+21.7 +18 79 +36  1012.3  0.7  741  272           
00 17.06.18 020 (С) н/о  дымка{гроза, ливн. осадки}  10/10 800 м кучево-дожд. 
[Cb cap]
+17.7 +16.7 94 +31  1011.2  -1.4  740  276           
03 17.06.18 360 (С) 4000 м  дымка{ливн. осадки}  10/8 840 м кучево-дожд., средняя 
[Cb calv|Ac und]
+18.9 +18.3 96 +35  1010.8  -0.3  739  274           
06 17.06.18 080 (В) 10 км  {ливн. осадки}  10/6 1000 м средняя 
[Sc|Ac trans]
+21.5 +18.3 82 +37  1011.2  0.6  740  272  +17.6       
09 17.06.18 130 (ЮВ) 10 км    10/0 средняя, верхняя 
[Ac trans|Ci fib]
+26.1 +19 65 +43  1011.1  0.3  740  268           
12 17.06.18 360 (С) 10 км  {гроза}  10/6 840 м кучево-дожд., средняя 
[Cb cap|Ac trans]
+27.1 +19 61 +44  1010.4  -0.6  740  267           
15 17.06.18 тихо ()   4000 м  в посл. час ливневой дождь{гроза}  10/10 800 м кучево-дожд. 
[Cb cap]
+17.7 +17.2 97 +31  1012.3  1.1  740  276           
18 17.06.18 тихо ()   4000 м  дымка{гроза, ливн. осадки}  10/3 600 м кучево-дожд., верхняя 
[Cb cap|Ci fib]
+17.7 +16.4 92 +29  1013.3  0.9  741  277    +27.1  19     
21 17.06.18 тихо ()   н/о  дымка  ясно 
+16.5 +15.1 91 +26  1013.5  741  278           
00 18.06.18 тихо ()   н/о  дымка  ясно 
+16.7 +15.5 93 +27  1013  -0.4  741  278           
03 18.06.18 тихо ()   4000 м  дымка  10/5 1000 м средняя, верхняя 
[Sc|Ac trans|Ci fib]
+16.8 +15.8 94 +27  1013.3  0.3  741  278           
06 18.06.18 040 (СВ) 10 км    3/0 верхняя 
[Ci fib]
+22.4 +17.2 72 +35  1013.3  0.4  741  272  +16.3         
09 18.06.18 050 (СВ) 20000 м    ясно 
+26.3 +12.1 41 +31  1013.5  0.5  742  270           
12 18.06.18 050 (СВ) 20000 м    ясно 
+27.2 +12.7 41 +32  1013.4  742  269           
15 18.06.18 030 (СВ) 20000 м    ясно 
+26.5 +11 38 +29  1013.1  -0.4  741  270           
18 18.06.18 тихо ()   10 км    ясно 
+22.5 +13.1 55 +28  1014  0.6  742  274    +27.9       
21 18.06.18 тихо ()   н/о    ясно 
+16.7 +14.1 85 +24  1016  1.5  743  279           
00 19.06.18 тихо ()   н/о    ясно 
+15.5 +13.3 87 +22  1016.3  0.2  743  281           
03 19.06.18 310 (СЗ) 10 км    3/0 верхняя 
[Ci fib]
+14.7 +13.4 92 +22  1017  0.6  744  282           
06 19.06.18 070 (В) 10 км    ясно 
+23.1 +15.7 63 +33  1016.8  0.6  744  273  +14.5         
09 19.06.18 040 (СВ) 20000 м    ясно 
+26.2 +14.1 47 +34  1016.9  0.3  744  271           
Время (UTC), дата Ветер
(°,м/с) 
Видим.   Явления Облачность Т
(°С)
Тd
(°С)
f(%) Тe
(°С)
Pmin
(гПа)
dP
(гПа)
Po
(мм)
O2
(г/м3)
Тmin Tmax R s Состояние
почвы

Для получения пояснительной информации подведите курсор к названию столбца.

ПОГОДА в Умани - архив

Всё, что Вы хотите узнать о погоде в Умани - удобно и подробно!

Выберите нужную дату (начиная с 1 января 2015* года) и нажмите кнопку "Найти".
Будут отображены архивные сводки погоды по пункту Умань, начиная с указанной даты.


Отображать данные в формате CSV (для использования в таблицах Excel)


Внимание! Наш архив погоды предназначен исключительно для личного некоммерческого использования в познавательных целях. Если Вам необходимы официальные справки о состоянии погоды (для производственных, юридических, коммерческих и т.п. целей), обращайтесь в органы Росгидромета.

*Примечание: данная дата относится к архиву по метеостанциям СССР (Россия, СНГ, Балтия).
Архив по метеостанциям Зарубежной Европы и Азии (кроме Китая) хранится 10 дней, по другим регионам земного шара (Китай, Африка, Америка, Австралия, Океания) - 1 день.

Умань - район местоположения метеостанции


Название, широта, долгота, высота метеостанции:
Умань 48.8°ш. 30.2°д. 216 м над ур. моря [Украина]

Дополнительная информация

В oтличие oт бoльшинства пoгoдных сайтoв мы публикуем пoдрoбную метеoинфoрмацию в детальнoм прoфессиoнальнoм фoрмате.

Характеристики температуры и влажнoсти вoздуха измеряются на высoте 2 м в тени вдали oт зданий и деревьев.
Скoрoсть ветра измеряется на высoте 10 м (на урoвне рoста челoвека скoрoсть ветра ниже в 1.5-2 раза). Если метеoстанция нахoдится в гoрoде или в лесу, тo скoрoсть ветра занижена на 2-4 м/с пo сравнению с oткрытым местoм. Скoрoсть ветра над акватoриями крупных рек и oзёр, а также на вершинах хoлмoв на 2-5 м/с выше, чем в oбычных услoвиях.
Атмoсфернoе давление в разных тoчках местнoсти мoжет значительнo oтличаться oт давления на метеoстанции, в зависимoсти oт услoвий рельефа (при пoдъёме на 10 м давление пoнижается примернo на 1 мм рт.ст.).